• In Uzbekistan
  • List of Countries
  • For 7 days
  • Water Temperature
  • Satellite Maps
  • Weather Map
  • Weather Widgets
  • user-avatar
    Login

    Hourly Weather Jureczkowa

    Today, 14 November, Wednesday

    Time Temperature Precipitation Wind Pressure Humidity
    00:00 +9°C° 0.3 mm 3 mps 726 mmHg 76%
    01:00 +9°C° 0.3 mm 3 mps 726 mmHg 80%
    02:00 +8°C° 0 mm 2 mps 726 mmHg 84%
    03:00 +8°C° 0.2 mm 3 mps 726 mmHg 85%
    04:00 +7°C° 0.2 mm 4 mps 726 mmHg 86%
    05:00 +7°C° 0.2 mm 4 mps 726 mmHg 87%
    06:00 +6°C° 0 mm 4 mps 726 mmHg 87%
    07:00 +6°C° 0 mm 4 mps 726 mmHg 87%
    08:00 +6°C° 0 mm 5 mps 727 mmHg 86%
    09:00 +6°C° 0.1 mm 5 mps 727 mmHg 83%
    10:00 +6°C° 0.1 mm 5 mps 727 mmHg 80%
    11:00 +6°C° 0.1 mm 5 mps 727 mmHg 77%
    12:00 +6°C° 0.1 mm 5 mps 727 mmHg 76%
    13:00 +6°C° 0.1 mm 5 mps 727 mmHg 75%
    14:00 +6°C° 0.1 mm 5 mps 727 mmHg 73%
    15:00 +6°C° 0.1 mm 5 mps 727 mmHg 76%
    16:00 +6°C° 0.1 mm 4 mps 727 mmHg 78%
    17:00 +5°C° 0.1 mm 4 mps 727 mmHg 81%
    18:00 +5°C° 0.1 mm 4 mps 727 mmHg 82%
    19:00 +5°C° 0.1 mm 4 mps 727 mmHg 84%
    20:00 +5°C° 0.1 mm 4 mps 727 mmHg 86%
    21:00 +5°C° 0.1 mm 3 mps 728 mmHg 87%
    22:00 +5°C° 0.1 mm 3 mps 728 mmHg 88%
    23:00 +5°C° 0.1 mm 3 mps 728 mmHg 89%

    Tomorrow, 15 November, Thursday

    Time Temperature Precipitation Wind Pressure Humidity
    00:00 +4°C° 0.1 mm 3 mps 728 mmHg 90%
    01:00 +4°C° 0.1 mm 3 mps 728 mmHg 90%
    02:00 +4°C° 0.1 mm 3 mps 728 mmHg 91%
    03:00 +4°C° 0.1 mm 3 mps 728 mmHg 91%
    04:00 +4°C° 0.1 mm 3 mps 728 mmHg 91%
    05:00 +4°C° 0.1 mm 3 mps 728 mmHg 92%
    06:00 +4°C° 0.1 mm 3 mps 728 mmHg 92%
    07:00 +4°C° 0.1 mm 3 mps 728 mmHg 92%
    08:00 +4°C° 0.1 mm 3 mps 729 mmHg 92%
    09:00 +4°C° 0.1 mm 3 mps 729 mmHg 91%
    10:00 +4°C° 0.1 mm 3 mps 729 mmHg 90%
    11:00 +4°C° 0.1 mm 3 mps 729 mmHg 88%
    12:00 +5°C° 0.1 mm 3 mps 729 mmHg 86%
    13:00 +5°C° 0.1 mm 3 mps 729 mmHg 84%
    14:00 +5°C° 0.1 mm 4 mps 729 mmHg 82%
    15:00 +5°C° 0.2 mm 3 mps 729 mmHg 82%
    16:00 +5°C° 0.2 mm 3 mps 729 mmHg 83%
    17:00 +4°C° 0.2 mm 3 mps 729 mmHg 83%
    18:00 +4°C° 0.1 mm 3 mps 729 mmHg 83%
    19:00 +3°C° 0.1 mm 4 mps 729 mmHg 84%
    20:00 +3°C° 0.1 mm 4 mps 730 mmHg 85%
    21:00 +1°C° 0 mm 4 mps 730 mmHg 86%
    22:00 +2°C° 0 mm 3 mps 730 mmHg 87%
    23:00 +1°C° 0 mm 3 mps 730 mmHg 88%

    Day after tomorrow, 16 November, Friday

    Time Temperature Precipitation Wind Pressure Humidity
    00:00 +1°C° 0 mm 3 mps 730 mmHg 89%
    01:00 +1°C° 0 mm 3 mps 731 mmHg 89%
    02:00 0°C° 0 mm 3 mps 731 mmHg 90%
    03:00 +1°C° 0 mm 3 mps 731 mmHg 90%
    04:00 +1°C° 0 mm 3 mps 731 mmHg 90%
    05:00 +1°C° 0 mm 3 mps 731 mmHg 90%
    06:00 +1°C° 0 mm 3 mps 731 mmHg 89%
    07:00 +1°C° 0 mm 3 mps 732 mmHg 89%
    08:00 +1°C° 0 mm 3 mps 732 mmHg 89%
    09:00 0°C° 0 mm 4 mps 732 mmHg 86%
    10:00 +1°C° 0 mm 4 mps 732 mmHg 82%
    11:00 +1°C° 0 mm 4 mps 733 mmHg 79%
    12:00 +1°C° 0 mm 4 mps 733 mmHg 77%
    13:00 +3°C° 0 mm 4 mps 733 mmHg 75%
    14:00 +3°C° 0 mm 4 mps 733 mmHg 73%
    15:00 +1°C° 0 mm 4 mps 733 mmHg 76%
    16:00 +1°C° 0 mm 3 mps 733 mmHg 79%
    17:00 0°C° 0 mm 3 mps 733 mmHg 82%
    18:00 0°C° 0 mm 3 mps 733 mmHg 83%
    19:00 -1°C° 0 mm 3 mps 733 mmHg 84%
    20:00 -1°C° 0 mm 3 mps 733 mmHg 85%
    21:00 -1°C° 0 mm 3 mps 734 mmHg 85%
    22:00 -2°C° 0 mm 3 mps 734 mmHg 84%
    23:00 -2°C° 0 mm 3 mps 734 mmHg 84%

    17 November, Saturday

    Time Temperature Precipitation Wind Pressure Humidity
    00:00 -3°C° 0 mm 2 mps 734 mmHg 84%
    01:00 -3°C° 0 mm 2 mps 734 mmHg 84%
    02:00 -3°C° 0 mm 2 mps 734 mmHg 84%
    03:00 -4°C° 0 mm 2 mps 734 mmHg 83%
    04:00 -4°C° 0 mm 2 mps 734 mmHg 83%
    05:00 -4°C° 0 mm 2 mps 734 mmHg 82%
    06:00 -4°C° 0 mm 2 mps 734 mmHg 81%
    07:00 -4°C° 0 mm 2 mps 734 mmHg 80%
    08:00 -4°C° 0 mm 2 mps 734 mmHg 79%
    09:00 -4°C° 0 mm 3 mps 734 mmHg 73%
    10:00 -2°C° 0 mm 3 mps 734 mmHg 68%
    11:00 -1°C° 0 mm 4 mps 734 mmHg 63%
    12:00 -1°C° 0 mm 4 mps 734 mmHg 61%
    13:00 0°C° 0 mm 4 mps 734 mmHg 58%
    14:00 +1°C° 0 mm 4 mps 734 mmHg 56%
    15:00 0°C° 0 mm 3 mps 734 mmHg 60%
    16:00 -1°C° 0 mm 3 mps 734 mmHg 63%
    17:00 -2°C° 0 mm 2 mps 733 mmHg 67%
    18:00 -2°C° 0 mm 2 mps 733 mmHg 67%
    19:00 -2°C° 0 mm 2 mps 733 mmHg 67%
    20:00 -3°C° 0 mm 2 mps 733 mmHg 67%
    21:00 -3°C° 0 mm 2 mps 733 mmHg 66%
    22:00 -3°C° 0 mm 2 mps 733 mmHg 66%
    23:00 -3°C° 0 mm 2 mps 733 mmHg 65%

    18 November, Sunday

    Time Temperature Precipitation Wind Pressure Humidity
    00:00 -3°C° 0 mm 2 mps 733 mmHg 65%
    01:00 -1°C° 0 mm 1 mps 733 mmHg 64%
    02:00 -1°C° 0 mm 1 mps 732 mmHg 64%
    03:00 -2°C° 0 mm 1 mps 732 mmHg 63%
    04:00 -2°C° 0 mm 1 mps 732 mmHg 61%
    05:00 -2°C° 0 mm 1 mps 731 mmHg 60%
    06:00 -2°C° 0 mm 1 mps 731 mmHg 59%
    07:00 -2°C° 0 mm 1 mps 731 mmHg 57%
    08:00 -2°C° 0 mm 1 mps 731 mmHg 56%
    09:00 0°C° 0 mm 1 mps 730 mmHg 49%
    10:00 +1°C° 0 mm 1 mps 730 mmHg 42%
    11:00 +3°C° 0 mm 1 mps 730 mmHg 36%
    12:00 +4°C° 0 mm 1 mps 730 mmHg 35%
    13:00 +4°C° 0 mm 1 mps 729 mmHg 33%
    14:00 +5°C° 0 mm 1 mps 729 mmHg 32%
    15:00 +3°C° 0 mm 1 mps 728 mmHg 37%
    16:00 +1°C° 0 mm 2 mps 727 mmHg 43%
    17:00 -2°C° 0 mm 2 mps 726 mmHg 48%
    18:00 -2°C° 0 mm 2 mps 726 mmHg 48%
    19:00 -3°C° 0 mm 2 mps 726 mmHg 48%
    20:00 -3°C° 0 mm 2 mps 725 mmHg 48%
    21:00 -3°C° 0 mm 2 mps 725 mmHg 50%
    22:00 -2°C° 0 mm 2 mps 725 mmHg 51%
    23:00 -2°C° 0 mm 2 mps 724 mmHg 53%

    19 November, Monday

    Time Temperature Precipitation Wind Pressure Humidity
    00:00 -2°C° 0.1 mm 2 mps 724 mmHg 60%
    01:00 -2°C° 0.1 mm 2 mps 724 mmHg 67%
    02:00 -2°C° 0.1 mm 2 mps 723 mmHg 75%
    03:00 -2°C° 0 mm 2 mps 723 mmHg 80%
    04:00 -2°C° 0 mm 2 mps 723 mmHg 85%
    05:00 -2°C° 0 mm 2 mps 723 mmHg 90%
    06:00 -2°C° 0.1 mm 3 mps 723 mmHg 90%
    07:00 -2°C° 0.1 mm 3 mps 723 mmHg 90%
    08:00 -2°C° 0.1 mm 3 mps 723 mmHg 90%
    09:00 -1°C° 0.1 mm 3 mps 723 mmHg 88%
    10:00 -1°C° 0.1 mm 3 mps 723 mmHg 85%
    11:00 -1°C° 0.1 mm 3 mps 723 mmHg 83%
    12:00 -1°C° 0.2 mm 3 mps 722 mmHg 83%
    13:00 0°C° 0.2 mm 3 mps 722 mmHg 83%
    14:00 0°C° 0.2 mm 3 mps 722 mmHg 83%
    15:00 0°C° 0.2 mm 3 mps 721 mmHg 86%
    16:00 -1°C° 0.2 mm 3 mps 721 mmHg 89%
    17:00 -1°C° 0.2 mm 2 mps 721 mmHg 92%
    18:00 -1°C° 0.3 mm 2 mps 721 mmHg 92%
    19:00 -1°C° 0.3 mm 3 mps 721 mmHg 93%
    20:00 -1°C° 0.3 mm 3 mps 721 mmHg 93%
    21:00 -1°C° 0.2 mm 3 mps 721 mmHg 93%
    22:00 -1°C° 0.2 mm 3 mps 721 mmHg 94%
    23:00 -1°C° 0.2 mm 2 mps 721 mmHg 94%
    Show more